CW6617 Weather Reports


time (UTC)temp
C
wind
direction
speed
KPH
gust
KPH
rain 1hr
cm
rain 24hr
cm
rain mn
cm
humidity
%
barometer
mb
20260510161704 13 48 14.5 27.4 0.00 0.00 0.00 63 1014.7
20260510161203 13 19 9.7 25.7 0.00 0.00 0.00 65 1014.8
20260510160704 13 1 14.5 25.7 0.00 0.00 0.00 65 1014.8
20260510160204 12 20 9.7 27.4 0.00 0.00 0.00 66 1014.9
20260510154703 12 36 8.0 20.9 0.00 0.00 0.00 69 1015.2
20260510153704 12 37 11.3 33.8 0.00 0.00 0.00 69 1015.4
20260510153204 12 2 14.5 25.7 0.00 0.00 0.00 68 1015.3
20260510151704 12 45 8.0 24.1 0.00 0.00 0.00 69 1015.4
20260510151203 12 55 11.3 20.9 0.00 0.00 0.00 68 1015.4
20260510150704 12 52 8.0 19.3 0.00 0.00 0.00 69 1015.5
20260510150203 12 42 8.0 32.2 0.00 0.00 0.00 69 1015.5
20260510144703 12 68 11.3 22.5 0.00 0.00 0.00 69 1015.6
20260510144204 12 41 8.0 16.1 0.00 0.00 0.00 70 1015.7
20260510143703 12 18 3.2 12.9 0.00 0.00 0.00 71 1015.7
20260510143204 12 79 9.7 27.4 0.00 0.00 0.00 70 1015.8
20260510141203 12 67 16.1 22.5 0.00 0.00 0.00 69 1016.0
20260510140204 12 52 16.1 29.0 0.00 0.00 0.00 71 1015.9
20260510134704 12 51 11.3 25.7 0.00 0.00 0.00 71 1016.1
20260510134204 12 357 12.9 24.1 0.00 0.00 0.00 71 1016.1
20260510133705 12 49 14.5 25.7 0.00 0.00 0.00 71 1016.0
20260510133204 12 31 4.8 29.0 0.00 0.00 0.00 71 1016.0
20260510131704 12 34 17.7 33.8 0.00 0.00 0.00 70 1016.0
20260510131204 12 54 16.1 29.0 0.00 0.00 0.00 71 1016.0
20260510130203 12 42 11.3 29.0 0.00 0.00 0.00 71 1016.2
20260510124705 12 44 8.0 20.9 0.00 0.00 0.00 73 1016.3
20260510123704 12 32 14.5 24.1 0.00 0.00 0.00 72 1016.4
20260510123204 13 2 14.5 27.4 0.00 0.00 0.00 72 1016.4
20260510121705 12 63 12.9 27.4 0.00 0.00 0.00 73 1016.5
20260510121203 12 46 17.7 29.0 0.00 0.00 0.00 72 1016.6
20260510120704 13 345 8.0 24.1 0.00 0.00 0.00 72 1016.5
20260510120203 13 2 16.1 25.7 0.00 0.00 0.00 70 1016.5
20260510114704 13 50 14.5 24.1 0.00 0.00 0.00 71 1016.5
20260510113703 13 21 9.7 20.9 0.00 0.00 0.00 71 1016.6
20260510111703 13 65 11.3 27.4 0.00 0.00 0.00 69 1016.8
20260510111204 13 53 17.7 33.8 0.00 0.00 0.00 68 1016.8
20260510110704 13 32 4.8 14.5 0.00 0.00 0.00 71 1016.8
20260510110204 13 57 16.1 32.2 0.00 0.00 0.00 69 1016.8
20260510104704 13 34 19.3 32.2 0.00 0.00 0.00 70 1016.9
20260510104204 13 332 9.7 24.1 0.00 0.00 0.00 71 1016.9
20260510103703 13 47 16.1 29.0 0.00 0.00 0.00 71 1016.9
20260510101704 13 49 14.5 22.5 0.00 0.00 0.00 68 1017.0
20260510101204 14 57 11.3 32.2 0.00 0.00 0.00 67 1017.0
20260510100704 13 46 16.1 29.0 0.00 0.00 0.00 67 1016.9
20260510100204 13 40 9.7 32.2 0.00 0.00 0.00 70 1017.0
20260510093704 12 65 11.3 37.0 0.00 0.00 0.00 72 1017.2
20260510093203 12 47 19.3 33.8 0.00 0.00 0.00 71 1017.2
20260510090704 12 51 16.1 32.2 0.00 0.00 0.00 73 1017.3
20260510090204 12 51 11.3 27.4 0.00 0.00 0.00 74 1017.4
20260510084703 11 50 19.3 32.2 0.00 0.00 0.00 76 1017.6
20260510084204 11 44 17.7 25.7 0.00 0.00 0.00 76 1017.6
20260510081704 11 30 14.5 25.7 0.00 0.00 0.00 79 1017.6
20260510080704 11 1 6.4 16.1 0.00 0.00 0.00 80 1017.7
20260510073704 10 61 9.7 20.9 0.00 0.00 0.00 82 1017.8
20260510071703 10 23 11.3 22.5 0.00 0.00 0.00 83 1017.6
20260510071204 10 51 8.0 20.9 0.00 0.00 0.00 84 1017.6
20260510070703 10 56 6.4 20.9 0.00 0.00 0.00 84 1017.5
20260510070204 10 50 8.0 25.7 0.00 0.00 0.00 84 1017.5
20260510064704 10 56 9.7 20.9 0.00 0.00 0.00 85 1017.5
20260510064204 10 45 9.7 20.9 0.00 0.00 0.00 85 1017.5
20260510063704 9 55 14.5 22.5 0.00 0.00 0.00 85 1017.6
20260510061704 9 39 9.7 19.3 0.00 0.00 0.00 86 1017.3
20260510061204 9 52 9.7 20.9 0.00 0.00 0.00 87 1017.3
20260510060703 9 36 6.4 20.9 0.00 0.00 0.00 86 1017.2
20260510054704 9 344 8.0 16.1 0.00 0.00 0.00 87 1017.2
20260510053704 9 49 9.7 20.9 0.00 0.00 0.00 87 1017.3
20260510053204 9 47 8.0 24.1 0.00 0.00 0.00 87 1017.3
20260510051204 9 21 8.0 16.1 0.00 0.00 0.00 87 1017.3
20260510050704 9 51 6.4 27.4 0.00 0.00 0.00 87 1017.3
20260510050204 8 46 6.4 22.5 0.00 0.00 0.00 87 1017.3
20260510044704 8 34 8.0 20.9 0.00 0.00 0.00 87 1017.3
20260510044204 8 31 11.3 22.5 0.00 0.00 0.00 87 1017.2
20260510043704 8 42 8.0 20.9 0.00 0.00 0.00 88 1017.2
20260510043204 8 15 8.0 20.9 0.00 0.00 0.00 88 1017.3
20260510041704 8 32 6.4 20.9 0.00 0.00 0.00 88 1017.4
20260510041204 8 53 4.8 20.9 0.00 0.00 0.00 87 1017.3
20260510040704 8 52 6.4 14.5 0.00 0.00 0.00 87 1017.3
20260510040203 8 341 4.8 20.9 0.00 0.00 0.00 88 1017.4
20260510034203 8 62 9.7 20.9 0.00 0.00 0.00 87 1017.5
20260510033204 9 52 4.8 20.9 0.00 0.00 0.00 87 1017.6
20260510030703 9 23 8.0 20.9 0.00 0.00 0.00 87 1017.7
20260510030204 9 8 6.4 22.5 0.00 0.00 0.00 87 1017.8
20260510024703 9 41 6.4 19.3 0.00 0.00 0.00 86 1017.7
20260510024203 9 60 4.8 14.5 0.00 0.00 0.00 87 1017.7
20260510023704 9 17 4.8 12.9 0.00 0.00 0.00 86 1017.7
20260510023204 9 68 6.4 20.9 0.00 0.00 0.00 86 1017.7
20260510021704 9 67 3.2 12.9 0.00 0.00 0.00 86 1017.8
20260510020704 9 57 8.0 16.1 0.00 0.00 0.00 85 1017.7
20260510020204 10 55 8.0 24.1 0.00 0.00 0.00 85 1017.6
20260510014703 10 335 4.8 16.1 0.00 0.00 0.00 84 1017.6
20260510014204 10 1 3.2 14.5 0.00 0.00 0.00 84 1017.6
20260510013704 10 24 11.3 19.3 0.00 0.00 0.00 83 1017.7
20260510013204 10 39 4.8 20.9 0.00 0.00 0.00 82 1017.7
20260510011204 10 51 6.4 12.9 0.00 0.00 0.00 78 1018.0
20260510010204 10 10 4.8 24.1 0.00 0.00 0.00 74 1017.7
20260510004704 11 6 4.8 11.3 0.00 0.00 0.00 69 1017.7
20260510004204 11 3 8.0 11.3 0.00 0.00 0.00 68 1017.8
20260510003704 11 12 6.4 22.5 0.00 0.00 0.00 67 1017.7
20260510003204 11 10 9.7 20.9 0.00 0.00 0.00 67 1017.7
20260510001703 11 23 1.6 14.5 0.00 0.00 0.00 67 1017.7
20260509234703 12 57 4.8 20.9 0.00 0.00 0.00 65 1017.6
20260509234204 12 45 6.4 20.9 0.00 0.00 0.00 64 1017.5
20260509231203 12 40 8.0 19.3 0.00 0.00 0.00 61 1017.5
20260509230203 12 39 6.4 20.9 0.00 0.00 0.00 61 1017.6
20260509224704 12 44 4.8 14.5 0.00 0.00 0.00 61 1017.5
20260509224204 12 35 4.8 16.1 0.00 0.00 0.00 61 1017.4
20260509223704 12 55 8.0 12.9 0.00 0.00 0.00 61 1017.4
20260509223204 12 21 3.2 20.9 0.00 0.00 0.00 61 1017.5
20260509221704 12 70 3.2 8.0 0.00 0.00 0.00 59 1017.5
20260509221204 12 37 1.6 4.8 0.00 0.00 0.00 59 1017.4
20260509220704 12 41 1.6 3.2 0.00 0.00 0.00 59 1017.4
20260509220204 12 38 3.2 9.7 0.00 0.00 0.00 58 1017.4
20260509214705 13 36 3.2 8.0 0.00 0.00 0.00 57 1017.5
20260509214204 13 60 3.2 8.0 0.00 0.00 0.00 57 1017.6
20260509213705 13 68 3.2 11.3 0.00 0.00 0.00 56 1017.6
20260509213204 13 115 1.6 14.5 0.00 0.00 0.00 56 1017.6
20260509211705 13 78 4.8 14.5 0.00 0.00 0.00 56 1017.5
20260509211204 13 92 6.4 11.3 0.00 0.00 0.00 56 1017.3
20260509210704 13 72 3.2 9.7 0.00 0.00 0.00 55 1017.2
20260509210204 14 18 3.2 12.9 0.00 0.00 0.00 56 1017.2
20260509204704 14 69 4.8 14.5 0.00 0.00 0.00 55 1017.1
20260509204204 14 51 3.2 12.9 0.00 0.00 0.00 55 1017.1
20260509203703 15 45 6.4 11.3 0.00 0.00 0.00 55 1017.1
20260509203203 15 67 6.4 14.5 0.00 0.00 0.00 55 1017.0
20260509201703 15 89 1.6 11.3 0.00 0.00 0.00 54 1017.0
20260509201204 15 55 4.8 11.3 0.00 0.00 0.00 54 1016.9
20260509200703 15 62 4.8 16.1 0.00 0.00 0.00 54 1016.8
20260509200204 15 54 3.2 11.3 0.00 0.00 0.00 53 1016.9
20260509194703 16 42 3.2 11.3 0.00 0.00 0.00 53 1016.7
20260509194204 16 109 4.8 16.1 0.00 0.00 0.00 52 1016.7
20260509193704 16 120 1.6 4.8 0.00 0.00 0.00 52 1016.6
20260509193203 16 104 3.2 11.3 0.00 0.00 0.00 52 1016.6
20260509191704 16 86 6.4 16.1 0.00 0.00 0.00 50 1016.5
20260509191204 16 98 4.8 14.5 0.00 0.00 0.00 50 1016.5
20260509190703 17 95 9.7 14.5 0.00 0.00 0.00 50 1016.4
20260509190204 17 47 4.8 20.9 0.00 0.00 0.00 49 1016.4
20260509183704 18 112 4.8 14.5 0.00 0.00 0.00 47 1016.2
20260509183203 18 105 9.7 19.3 0.00 0.00 0.00 46 1016.1
20260509181204 19 108 8.0 19.3 0.00 0.00 0.00 45 1016.0
20260509180704 19 69 9.7 20.9 0.00 0.00 0.00 46 1016.0
20260509174704 19 69 9.7 16.1 0.00 0.00 0.00 45 1015.8
20260509174204 20 91 8.0 16.1 0.00 0.00 0.00 46 1015.7
20260509173703 20 58 8.0 19.3 0.00 0.00 0.00 45 1015.8
20260509173203 20 100 8.0 20.9 0.00 0.00 0.00 46 1015.7
20260509171704 20 77 9.7 19.3 0.00 0.00 0.00 44 1015.7
20260509171203 20 97 4.8 14.5 0.00 0.00 0.00 44 1015.7
20260509170704 20 57 9.7 16.1 0.00 0.00 0.00 42 1015.8
20260509170203 21 85 4.8 22.5 0.00 0.00 0.00 43 1015.8
20260509164703 21 75 4.8 16.1 0.00 0.00 0.00 41 1015.8
20260509164203 22 88 4.8 20.9 0.00 0.00 0.00 41 1015.8
20260509163704 22 71 9.7 20.9 0.00 0.00 0.00 41 1015.7
20260509163204 22 60 6.4 20.9 0.00 0.00 0.00 40 1015.7